Weather in Horadiz

Azerbaijan     39°26′50″N   47°20′12″E
temp.,
°C
wind,
m/s
gust,
m/s
humid.,
%
clouds,
%
prec.,
mm/h
press.,
hPa
HPBL,
m
16 may, sun
sun1601:30+19nw22250 0.0 101418
04:30+17wnw11280 0.0 101411
07:30+18w11330 0.0 101532
10:30+24nne23270 0.0 1014734
13:30+28ne43260 0.0 10131382
16:30+29ne33200 0.0 10101739
19:30+26ne36300 0.0 1010134
22:30+20nnw33410 0.0 101131
17 may, mon
mon1701:30+19w1242100 0.0 101113
04:30+17nw11475 0.0 101111
07:30+19sw114636 0.0 101146
10:30+25ne21301 0.0 1011646
13:30+29ne42250 0.0 10091186
16:30+31ene432489 0.0 10071263
19:30+28nne34345 0.0 1006100
22:30+23nnw612431 0.0 1008301
18 may, tue
tue1801:30+20sw225525 0.0 100821
04:30+20wsw22495 0.0 100628
07:30+20n245895 0.0 1008161
10:30+24nne554874 0.0 1008757
13:30+29nne6637100 0.0 10071371
16:30+30nne56330 0.0 10071851
19:30+26nnw593822 0.1 1008584
22:30+21nw4760100 0.8 1012169
19 may, wed
wed1901:30+19ssw34663 0.1 101254
04:30+18ssw35690 0.1 101271
07:30+20w12590 0.0 101487
10:30+25se22410 0.0 10141136
13:30+29e43310 0.0 10141705
16:30+30ene43280 0.0 10121952
19:30+28ne23340 0.0 1012108
22:30+23n22525 0.0 101412
20 may, thu
thu2001:30+22wsw22480 0.0 101315
04:30+18n23680 0.0 101442
07:30+20sse11620 0.0 101593
10:30+26ne22430 0.0 1015731
13:30+30ne42340 0.0 10131359
16:30+32ene43290 0.0 10111571
19:30+29ene57360 0.0 1011368
22:30+22nnw34520 0.0 101358